Location: Ulm
(48.3980°N, 9.9777°E)
Time: 07:40:02
(UTC+02:00)

ISS - Visible Passes

Search period start: 09 May 2021 00:00
Search period end: 19 May 2021 00:00
Orbit: 418 x 421 km, 51.6° (Epoch: 08 May)

Date Brightness Start Highest point End Pass type
(mag) Time Alt. Az. Time Alt. Az. Time Alt. Az.
09 May -2.0 02:03:26 27° ENE 02:03:26 27° ENE 02:05:07 10° ENE visible
09 May -2.8 03:36:22 17° WNW 03:38:44 47° N 03:42:01 10° ENE visible
10 May -0.9 01:17:27 11° ENE 01:17:27 11° ENE 01:17:39 10° ENE visible
10 May -3.0 02:50:22 39° NW 02:51:13 51° N 02:54:32 10° ENE visible
10 May -3.0 04:25:01 10° WNW 04:28:21 55° NNE 04:31:41 10° E visible
11 May -2.8 02:04:21 48° NE 02:04:21 48° NE 02:07:04 10° ENE visible
11 May -2.8 03:37:33 10° WNW 03:40:51 48° N 03:44:09 10° E visible
12 May -1.7 01:18:16 22° ENE 01:18:16 22° ENE 01:19:38 10° ENE visible
12 May -2.7 02:51:11 19° WNW 02:53:19 46° N 02:56:37 10° ENE visible
12 May -3.7 04:26:58 10° WNW 04:30:22 86° NNE 04:33:45 10° ESE visible
13 May -0.9 00:32:06 11° ENE 00:32:06 11° ENE 00:32:11 10° ENE visible
13 May -2.7 02:05:02 38° NW 02:05:48 46° N 02:09:05 10° ENE visible
13 May -3.4 03:39:32 10° WNW 03:42:55 67° NNE 03:46:17 10° E visible
14 May -2.8 01:18:37 48° NNE 01:18:37 48° NNE 01:21:36 10° ENE visible
14 May -3.1 02:52:04 10° WNW 02:55:25 55° NNE 02:58:44 10° E visible
14 May -3.5 04:28:58 10° WNW 04:32:14 47° SSW 04:35:30 10° SE visible
14 May -3.4 22:50:49 10° SW 22:54:00 41° SSE 22:55:39 23° E visible
15 May -3.2 00:27:26 10° W 00:30:46 59° NNW 00:34:07 10° ENE visible
15 May -2.8 02:04:36 10° WNW 02:07:54 48° N 02:11:12 10° E visible
15 May -3.9 03:41:28 10° WNW 03:44:51 69° SSW 03:48:13 10° ESE visible
15 May -2.8 22:03:46 10° SSW 22:06:41 27° SE 22:09:36 10° E visible
15 May -3.6 23:39:55 10° WSW 23:43:17 73° NNW 23:46:41 10° ENE visible
16 May -2.7 01:17:06 10° WNW 01:20:23 46° N 01:23:40 10° ENE visible
16 May -3.8 02:54:01 10° WNW 02:57:25 86° NNE 03:00:48 10° ESE visible
16 May -2.5 04:31:16 10° W 04:33:55 22° SW 04:36:34 10° SSE visible
16 May -3.9 22:52:28 10° WSW 22:55:51 85° SSE 22:59:13 10° ENE visible
17 May -2.7 00:29:34 10° W 00:32:50 46° N 00:36:08 10° ENE visible
17 May -3.5 02:06:35 10° WNW 02:09:57 67° NNE 02:13:19 10° E visible
17 May -3.1 03:43:34 10° W 03:46:37 32° SW 03:49:39 10° SSE visible
17 May -3.8 22:05:06 10° SW 22:08:25 60° SSE 22:11:45 10° ENE visible
17 May -2.9 23:42:01 10° W 23:45:19 50° N 23:48:38 10° ENE visible
18 May -3.1 01:19:07 10° WNW 01:22:27 55° NNE 01:22:56 49° NE visible
18 May -3.1 22:54:28 10° W 22:57:48 58° NNW 23:01:09 10° ENE visible
